This is the latest recevied weather packets stored in our database for station/object AG7BI. If no packets are shown the sender has not sent any weather packets the latest 10 day(s).
| Time | Temp. | Humidity | Pressure | Rain* | Wind** | Luminosity | Snow |
|---|---|---|---|---|---|---|---|
| 1777077047 | 13.89° C | 35% | 1017.2 hPa | 0 mm | - | - | - |
| 1777076747 | 13.89° C | 34% | 1017.1 hPa | 0 mm | - | - | - |
| 1777076447 | 13.89° C | 36% | 1017.1 hPa | 0 mm | - | - | - |
| 1777076147 | 13.89° C | 34% | 1017 hPa | 0 mm | - | - | - |
| 1777075847 | 13.89° C | 34% | 1017.1 hPa | 0 mm | - | - | - |
| 1777075547 | 13.89° C | 35% | 1017.3 hPa | 0 mm | - | - | - |
| 1777075247 | 13.89° C | 33% | 1017.3 hPa | 0 mm | - | - | - |
| 1777074947 | 13.89° C | 35% | 1017.5 hPa | 0 mm | - | - | - |
| 1777074647 | 13.89° C | 35% | 1017.4 hPa | 0 mm | - | - | - |
| 1777074347 | 13.89° C | 32% | 1017.4 hPa | 0 mm | - | - | - |
| 1777074047 | 13.89° C | 33% | 1017.6 hPa | 0 mm | - | - | - |
| 1777073747 | 13.89° C | 32% | 1017.9 hPa | 0 mm | - | - | - |
| 1777073447 | 13.89° C | 32% | 1017.7 hPa | 0 mm | - | - | - |
| 1777073147 | 13.89° C | 35% | 1018.1 hPa | 0 mm | - | - | - |
| 1777072847 | 13.89° C | 38% | 1018 hPa | 0 mm | - | - | - |
| 1777072547 | 13.89° C | 34% | 1018 hPa | 0 mm | - | - | - |
| 1777072247 | 13.89° C | 38% | 1017.9 hPa | 0 mm | - | - | - |
| 1777071947 | 13.89° C | 36% | 1018 hPa | 0 mm | - | - | - |
| 1777071647 | 13.89° C | 36% | 1018 hPa | 0 mm | - | - | - |
| 1777071347 | 13.89° C | 35% | 1018.1 hPa | 0 mm | - | - | - |
| 1777071047 | 13.89° C | 34% | 1018.4 hPa | 0 mm | - | - | - |
| 1777070747 | 14.44° C | 35% | 1018.3 hPa | 0 mm | - | - | - |
| 1777070447 | 14.44° C | 39% | 1018.4 hPa | 0 mm | - | - | - |
| 1777070147 | 14.44° C | 34% | 1018.4 hPa | 0 mm | - | - | - |
| 1777069847 | 14.44° C | 33% | 1018.6 hPa | 0 mm | - | - | - |
* Rain latest hour (hover to see other rain measurements)
** Current wind speed in m/s (hover to see current wind gust speed)